Tracking 19634 objects as of 23-May-2019
HD Live streaming from Space Station
objects crossing your sky now

CAT 3

Track CAT 3 now!
10-day predictions
CAT 3 is classified as:


NORAD ID: 12546
Int'l Code: 1981-057C
Perigee: 217.9 km
Apogee: 20,534.9 km
Inclination: 10.3 °
Period: 359.5 minutes
Semi major axis: 16747 km
RCS: 1.9927 m2 (large)
Launch date: June 19, 1981
Source: European Space Agency (ESA)
Launch site: FRENCH GUIANA (FRGUI)
aabbcc
Your satellite tracking list
Your tracking list is empty




NASA's NSSDC Master Catalog

Two Line Element Set (TLE):
1 12546U 81057C   19142.26165156  .00007654  00000-0  34939-3 0  9991
2 12546  10.3091  25.1731 6065701 190.9962 144.8663  4.00573085303666
Source of the keplerian elements: AFSPC